Weather History for Sault Ste Marie, MI

Change the Weather History Date:

Thursday, April 11, 2013

  Actual Average Record
Temperature  
Mean Temperature 31 °F 38 °F  
Max Temperature 37 °F 47 °F 79 °F (1945)
Min Temperature 25 °F 29 °F 4 °F (1923)
Degree Days  
Heating Degree Days 34 27  
Month to date heating degree days 391 322  
Since 1 July heating degree days 7337 7648  
Cooling Degree Days 0 0  
Month to date cooling degree days 0 0  
Year to date cooling degree days 0 0  
Moisture  
Dew Point 11 °F    
Average Humidity 49    
Maximum Humidity 63    
Minimum Humidity 35    
Precipitation  
Precipitation 0.05 in 0.08 in 0.66 in (1950)
Month to date precipitation 1.04 0.91  
Year to date precipitation 9.73 6.39  
Snow  
Snow 0.50 in 0.30 in 2.50 in (1957)
Month to date snowfall 7.3 3.4  
Since 1 July snowfall 146.9 117.0  
Snow Depth 15.00 in    
Sea Level Pressure  
Sea Level Pressure 30.10 in    
Wind  
Wind Speed 12 mph (East)    
Max Wind Speed 20 mph    
Max Gust Speed 27 mph    
Visibility 10 miles    
Events Snow    
T = Trace of Precipitation, MM = Missing Value Source: NWS Daily Summary

Daily Weather History Graph

Daily Weather History Graph

Search for Another Location

Airport:

Trip Planner

Search our weather history database for the weather conditions in past years. The results will help you decide how hot, cold, wet, or windy it might be!

Date:

Astronomy

Apr. 11, 2013 Rise Set
Actual Time 6:57 AM EDT 8:20 PM EDT
Civil Twilight 6:26 AM EDT 8:51 PM EDT
Nautical Twilight 5:48 AM EDT 9:29 PM EDT
Astronomical Twilight 5:08 AM EDT 10:10 PM EDT
Moon 7:23 AM EDT (4/11) 10:00 PM EDT (4/11)
Length of Visible Light 14h 25m
Length of Day
13h 22m
New Moon, 2% of the Moon is Illuminated
Apr 11
New Moon
Apr 18
First Quarter
Apr 25
Full
May 2
Last Quarter
May 9
New

Hourly Weather History & Observations

Time (EDT) Temp. Windchill Dew Point Humidity Pressure Visibility Wind Dir Wind Speed Gust Speed Precip Events Conditions
12:55 AM 34.0 °F 25.5 °F 16.0 °F 48% 30.16 in 10.0 mi ENE 11.5 mph 20.7 mph N/A   Clear
1:55 AM 32.0 °F 22.5 °F 15.1 °F 50% 30.18 in 10.0 mi ENE 12.7 mph 18.4 mph N/A   Clear
2:55 AM 30.0 °F 22.4 °F 15.1 °F 54% 30.15 in 10.0 mi ENE 8.1 mph 17.3 mph N/A   Clear
3:55 AM 28.9 °F 20.4 °F 14.0 °F 54% 30.15 in 10.0 mi ENE 9.2 mph 19.6 mph N/A   Clear
4:55 AM 28.0 °F 18.1 °F 10.0 °F 47% 30.15 in 10.0 mi ENE 11.5 mph 26.5 mph N/A   Clear
5:55 AM 27.0 °F 16.7 °F 9.0 °F 47% 30.18 in 10.0 mi East 11.5 mph 18.4 mph N/A   Clear
6:55 AM 26.1 °F 15.6 °F 8.1 °F 47% 30.19 in 10.0 mi East 11.5 mph 19.6 mph N/A   Clear
7:55 AM 25.0 °F 13.6 °F 8.1 °F 49% 30.19 in 10.0 mi ENE 12.7 mph - N/A   Clear
8:55 AM 25.0 °F 12.6 °F 7.0 °F 46% 30.17 in 10.0 mi East 15.0 mph 20.7 mph N/A   Clear
9:55 AM 27.0 °F 17.3 °F 8.1 °F 45% 30.20 in 10.0 mi East 10.4 mph 16.1 mph N/A   Clear
10:55 AM 28.0 °F 17.5 °F 8.1 °F 43% 30.14 in 10.0 mi East 12.7 mph 19.6 mph N/A   Clear
11:55 AM 30.9 °F 22.2 °F 9.0 °F 40% 30.16 in 10.0 mi East 10.4 mph - N/A   Clear
12:55 PM 32.0 °F 24.2 °F 10.0 °F 40% 30.14 in 10.0 mi East 9.2 mph 17.3 mph N/A   Clear
1:55 PM 33.1 °F 23.4 °F 10.0 °F 38% 30.11 in 10.0 mi East 13.8 mph - N/A   Clear
2:55 PM 34.0 °F 24.6 °F 10.9 °F 38% 30.09 in 10.0 mi East 13.8 mph 21.9 mph N/A   Overcast
3:55 PM 35.1 °F 26.9 °F 10.0 °F 35% 30.08 in 10.0 mi East 11.5 mph 23.0 mph N/A   Mostly Cloudy
4:55 PM 35.1 °F 26.4 °F 12.0 °F 39% 30.06 in 10.0 mi East 12.7 mph 21.9 mph N/A   Mostly Cloudy
5:55 PM 37.0 °F 29.3 °F 12.9 °F 37% 30.05 in 10.0 mi East 11.5 mph 18.4 mph N/A   Mostly Cloudy
6:55 PM 36.0 °F 26.7 °F 12.0 °F 37% 30.06 in 10.0 mi East 15.0 mph 20.7 mph N/A   Overcast
7:55 PM 35.1 °F 26.4 °F 12.9 °F 40% 30.02 in 10.0 mi East 12.7 mph 21.9 mph N/A   Overcast
8:55 PM 34.0 °F 25.0 °F 12.0 °F 40% 30.02 in 10.0 mi East 12.7 mph 19.6 mph N/A   Overcast
9:55 PM 34.0 °F 26.6 °F 12.0 °F 40% 30.01 in 10.0 mi East 9.2 mph 23.0 mph N/A   Overcast
10:55 PM 34.0 °F 25.0 °F 10.9 °F 38% 30.01 in 10.0 mi ESE 12.7 mph 20.7 mph N/A   Overcast
11:48 PM 30.9 °F 20.2 °F 18.0 °F 59% 29.98 in 4.0 mi East 15.0 mph 20.7 mph 0.00 in Snow Light Snow
11:55 PM 30.0 °F 19.5 °F 19.0 °F 64% 30.01 in 2.5 mi East 13.8 mph 25.3 mph 0.00 in Snow Light Snow